Location: Unspecified
(36.5600°N, 136.6600°E)
Time: 13:55:47
(UTC+09:00)

ISS - Pass Details

Date: 28 June 2024
Orbit: 410 x 424 km, 51.6° (Epoch: 17 July)

Event Time Altitude Azimuth Distance (km) Brightness Sun altitude
Exits shadow 02:14:52 28° 323° (NW) 808 -2.2 -21.9°
Maximum altitude 02:14:59 28° 327° (NNW) 806 -2.2 -21.8°
Drops below altitude 10° 02:17:56 10° 29° (NNE) 1,489 0.2 -21.5°
Sets 02:20:14 0° 41° (NE) 2,359 1.6 -21.2°
